Regional Weather Roundup
Issued by NWS

Home | Current Version | Previous Version | Text Only | Print | Product List | Glossary On
Versions: 1 2 3 4 5 6 7 8 9 10 11 12 13 14 15 16 17 18 19 20 21 22 23 24 25 26 27 28
000
ASUS45 KPSR 171110
RWRAZ

ARIZONA HOURLY REGIONAL WEATHER ROUNDUP
NATIONAL WEATHER SERVICE PHOENIX AZ
400 AM MST THU AUG 17 2017

NOTE: FAIR INDICATES FEW OR NO CLOUDS BELOW 12,000 FEET WITH NO
SIGNIFICANT WEATHER AND/OR OBSTRUCTIONS TO VISIBILITY.

AZZ001>003-036-171200-
NORTHWEST ARIZONA

CITY           SKY/WX    TMP DP  RH WIND       PRES   REMARKS
BULLHEAD CITY  CLEAR     82  36  18 CALM      29.85R
KINGMAN        CLEAR     68  38  33 S3        30.05R
$$

AZZ004>008-015-016-018-171200-
NORTH CENTRAL ARIZONA

CITY           SKY/WX    TMP DP  RH WIND       PRES   REMARKS
GRAND CANYON   PTCLDY    47  38  71 CALM      30.28R
WILLIAMS       CLEAR     48  41  76 S7        30.28S
PRESCOTT       CLEAR     56  46  69 S6        30.17R
FLAGSTAFF      CLEAR     45  39  79 CALM      30.31R
PAYSON           N/A     61  39  44 CALM      30.18S
PAGE           CLEAR     70  37  29 CALM      30.08R
$$

AZZ009>014-017-171200-
NORTHEAST ARIZONA

CITY           SKY/WX    TMP DP  RH WIND       PRES   REMARKS
WINSLOW        CLEAR     58  41  53 CALM      30.17R
SAINT JOHNS    CLEAR     55  42  61 S3        30.22R
WINDOW ROCK    CLOUDY    55  35  47 CALM      30.29R
SHOW LOW       CLEAR     52  39  62 S5        30.27S
$$

AZZ540-542>544-546-548-171200-
GREATER PHOENIX AREA

CITY           SKY/WX    TMP DP  RH WIND       PRES   REMARKS
PHOENIX        CLEAR     81  47  30 E7        29.87S
BUCKEYE        CLEAR     73  37  27 NW3       29.88S
LUKE AFB       CLEAR     75  58  54 NW3       29.87R
DEER VALLEY    CLEAR     79  45  29 E7        29.89S
SCOTTSDALE     CLEAR     78  46  32 CALM      29.92R
MESA-GATEWAY   CLEAR     77  43  29 E8        29.91R
$$

AZZ539-553-171200-
SOUTHWEST MARICOPA COUNTY AND PINAL COUNTY

CITY           SKY/WX    TMP DP  RH WIND       PRES   REMARKS
CASA GRANDE    CLEAR     71  54  54 CALM      29.93R
GILA BEND      FAIR      78  38  23 CALM      29.86R
$$

AZZ503-504-507>509-171200-
SOUTHEAST ARIZONA

CITY           SKY/WX    TMP DP  RH WIND       PRES   REMARKS
TUCSON         CLEAR     72  52  49 S7        30.01R
DAVIS-MONTHAN  CLEAR     70  51  50 SE8       30.01R
NOGALES        CLEAR     60  53  77 CALM      30.11R
SIERRA VISTA   CLEAR     67  47  48 CALM      30.16R
DOUGLAS        CLEAR     61  53  75 E3        30.12R
SAFFORD        CLEAR     67  46  47 NE5       30.03R
$$

AZZ532-171200-
SOUTHWEST ARIZONA

CITY           SKY/WX    TMP DP  RH WIND       PRES   REMARKS
YUMA           CLEAR     80  60  50 S3        29.82S
$$

CAZ041-043-047-048-061-525>527-560>570-171200-
SOUTHERN CALIFORNIA

CITY           SKY/WX    TMP DP  RH WIND       PRES   REMARKS
DOWNTOWN L.A.  CLEAR     66  59  78 CALM      29.97R
L.A. AIRPORT   CLEAR     66  61  84 S3        29.97S
SAN DIEGO      MOCLDY    67  59  75 NE3       29.99S
BURBANK        CLEAR     65  56  72 E6        29.97S
ONTARIO        CLEAR     63  59  87 W5        29.98S
RIVERSIDE      CLEAR     65  60  84 CALM      29.98S
PALM SPRINGS   CLEAR     78  52  40 CALM      29.85S
EL CENTRO NAS  CLEAR     82  34  17 W15       29.82R
IMPERIAL       CLEAR     83  41  22 W10       29.80R
BLYTHE         CLEAR     77  50  38 S5        29.82S
NEEDLES        CLEAR     81  36  19 NW6       29.86R
$$

NVZ020-UTZ003-171200-
SOUTHERN NEVADA-UTAH

CITY           SKY/WX    TMP DP  RH WIND       PRES   REMARKS
LAS VEGAS      CLEAR     80  41  24 S3        29.94R
SALT LAKE CITY PTCLDY    70  41  34 SE10      30.06S
$$

NMZ009-TXZ055-171200-
NEW MEXICO-WEST TEXAS

CITY           SKY/WX    TMP DP  RH WIND       PRES   REMARKS
ALBUQUERQUE    CLOUDY    66  43  43 SE7       30.19R
EL PASO        PTCLDY    72  60  66 SE8       30.07R
$$


........................KEY........................
SKY/WX - SKY CONDITION/WEATHER
TMP    - TEMPERATURE IN FAHRENHEIT
DP     - DEW POINT IN FAHRENHEIT
RH     - RELATIVE HUMIDITY IN PERCENT
WIND   - DIRECTION AND SPEED IN MILES PER HOUR (MPH)
VRB    - VARIABLE WIND DIRECTION
PRES   - MEAN SEA LEVEL PRESSURE IN INCHES OF MERCURY
         F - FALLING PRESSURE   R - RISING PRESSURE
         S - STEADY PRESSURE
VSB    - VISIBILITY IN MILES
HX     - HEAT INDEX IN FAHRENHEIT
WCI    - WIND CHILL INDEX IN FAHRENHEIT
TC     - TEMPERATURE IN CELSIUS WHICH IS ALSO KNOWN AS
         TEMPERATURE IN CENTIGRADE
AFB    - AIR FORCE BASE
         LUKE AFB IS LUKE AIR FORCE BASE
         DAVIS-MONTHAN IS DAVIS-MONTHAN AIR FORCE BASE
NAS    - NAVAL AIR STATION
         EL CENTRO NAS IS EL CENTRO NAVAL AIR STATION
N/A    - NOT AVAILABLE





USA.gov is the U.S. government's official web portal to all federal, state and local government web resources and services.